Probability
0 0 0 0 1 2 2 2 7 16 27 43 61 73 75 72 68 58 40 26 18 9 4 1 0 1 2 3 3 2 2 3 3 3 5 9 12 8 3 1 0 0 0
0 0 0 0 0 1 1 1 4 8 13 22 38 55 66 70 68 58 40 24 17 10 5 3 1 1 2 2 2 1 1 2 1 1 2 5 7 6 2 0 0 0 0
0 0 0 0 0 0 0 0 1 1 2 5 12 26 44 59 62 54 39 25 18 13 9 5 1 0 1 1 1 1 1 1 0 0 0 2 3 3 1 0 0 0 0
1 0 1 1 1 0 0 0 0 0 1 1 2 7 20 34 43 43 38 29 22 17 12 6 2 0 0 1 2 2 2 1 0 0 0 1 2 1 0 0 0 0 0
2 1 1 2 2 0 0 0 0 0 0 0 0 1 5 12 19 25 28 26 24 20 13 8 3 0 0 1 1 1 1 1 0 0 0 1 1 0 0 0 0 0 0
3 2 1 2 1 0 0 0 0 0 0 0 0 0 1 2 4 7 11 16 21 20 14 9 3 0 0 0 0 0 0 0 0 0 0 0 0 0 0 0 0 0 0
4 3 3 2 1 0 0 1 2 2 1 0 0 0 0 0 0 0 1 7 15 18 15 9 3 0 0 0 0 0 0 0 0 0 0 0 0 0 0 0 0 0 0
3 3 3 3 1 1 2 4 6 5 2 0 0 0 0 0 0 0 0 3 8 12 11 7 3 1 0 0 0 0 0 0 0 0 0 0 0 0 0 0 0 0 0
1 1 1 1 1 1 3 6 7 6 3 0 0 0 0 0 0 0 0 1 3 5 5 3 2 1 0 0 0 0 0 0 0 0 0 0 0 0 0 0 0 0 0
0 0 0 0 0 0 2 4 4 3 2 0 0 0 0 0 0 0 0 0 1 1 1 1 0 0 0 0 0 0 0 0 0 0 0 0 0 0 0 0 0 0 0
0 0 0 0 0 0 1 2 2 1 0 0 0 0 0 0 0 0 0 0 0 0 0 0 0 0 0 0 0 0 0 0 0 0 0 0 0 0 0 0 0 0 0
0 0 0 0 0 0 0 0 0 0 0 0 0 0 0 0 0 0 0 0 0 0 0 0 0 0 0 0 0 0 0 0 0 0 0 0 0 0 0 0 0 0 0
0 0 0 0 0 0 0 0 0 0 0 0 0 0 0 1 1 0 0 0 0 0 0 0 0 0 0 0 0 0 0 0 0 0 0 0 0 0 0 0 0 0 0
0 0 0 0 0 0 0 0 0 0 0 0 0 0 0 1 1 0 0 0 0 0 0 0 0 0 0 0 0 0 0 0 0 0 0 0 0 0 0 0 0 0 0
0 0 0 0 0 0 0 0 0 0 0 0 0 0 0 1 1 0 0 0 0 0 0 0 0 0 0 0 0 0 0 0 0 0 0 0 0 0 0 0 0 0 0
0 0 0 0 0 0 0 0 0 0 0 0 0 0 0 0 0 0 0 0 0 0 0 0 0 0 0 0 0 0 0 0 0 0 0 0 0 0 0 0 0 0 0
0 0 0 0 0 0 0 0 0 0 0 0 0 0 0 0 0 0 0 0 0 0 0 0 0 0 0 0 0 0 0 0 0 0 0 0 0 0 0 0 0 0 0
0 0 0 0 0 0 0 0 0 0 0 0 0 0 0 0 0 0 0 0 0 0 0 0 0 0 0 0 0 0 0 0 0 0 0 0 0 0 0 0 0 0 0
0 0 0 0 0 0 0 0 0 0 0 0 0 0 0 0 0 0 0 0 0 0 0 0 0 0 0 0 0 0 0 0 0 0 0 0 0 0 0 0 0 0 0
0 0 0 0 0 0 0 0 0 0 0 0 0 0 0 0 0 0 0 0 0 0 0 0 0 0 0 0 0 0 0 0 0 0 0 0 0 0 0 0 0 0 0
0 0 0 0 0 0 0 0 0 0 0 0 0 0 0 0 0 0 0 0 0 0 0 0 0 0 0 0 0 0 0 0 0 0 0 0 0 0 0 0 0 0 0
0 0 0 0 0 0 0 0 0 0 0 0 0 0 0 0 0 0 0 0 0 0 0 0 0 0 0 0 0 0 0 0 0 0 0 0 0 0 0 0 0 0 0
0 0 0 0 0 0 0 0 0 0 0 0 0 0 0 0 0 0 0 0 0 0 0 0 0 0 0 0 0 0 0 0 0 0 0 0 0 0 0 0 0 0 0
0 0 0 0 0 0 0 0 0 0 0 0 0 0 0 0 0 0 0 0 0 0 0 0 0 0 0 0 0 0 0 0 0 0 0 0 0 0 0 0 0 0 0
0 0 0 0 0 0 0 0 0 0 0 0 0 0 0 0 0 0 0 0 0 0 0 0 0 0 0 0 0 0 0 0 0 0 0 0 0 0 0 0 0 0 0
0 0 0 0 0 0 0 0 0 0 0 0 0 0 0 0 0 0 0 0 0 0 0 0 0 0 0 0 0 0 0 0 0 0 0 0 0 0 0 0 0 0 0
Wind_Speed
5 5 6 6 7 7 6 6 6 6 7 7 7 8 8 8 7 7 7 7 6 6 5 5 5 6 4 4 4 4 5 5 4 2 2 4 6 8 8 8 8 8 9
6 6 6 6 7 7 8 7 7 7 7 8 8 8 9 9 8 7 8 7 6 6 5 5 5 4 4 3 3 4 3 4 5 7 4 4 6 8 9 9 8 8 8
8 7 7 7 7 8 8 8 8 8 8 9 9 9 9 9 9 8 8 7 6 5 4 4 4 3 3 2 2 2 1 3 5 7 6 4 5 6 8 8 9 7 9
9 8 8 8 9 9 9 9 9 9 9 9 9 9 9 10 10 10 9 7 6 4 3 2 2 1 1 1 1 0 2 5 6 7 7 5 5 6 6 7 6 5 6
9 9 9 9 8 9 9 9 9 9 11 9 9 8 8 9 10 9 8 8 6 4 3 2 2 4 3 2 2 2 4 5 6 7 7 6 5 5 5 5 6 5 5
9 10 9 8 8 9 9 9 10 10 10 10 9 9 9 10 10 11 9 7 5 4 4 4 6 5 7 7 8 6 5 6 7 6 6 7 6 5 4 6 6 6 5
9 10 9 9 9 9 11 10 9 9 9 9 9 8 8 8 10 11 11 8 6 5 5 6 6 7 7 7 7 8 7 7 7 7 8 7 6 5 6 6 6 6 4
10 10 10 9 10 9 9 9 8 7 7 7 8 9 8 9 9 9 10 9 7 6 7 7 7 8 8 7 7 7 6 6 6 6 7 6 5 4 5 6 6 6 5
13 11 11 10 11 10 9 9 8 7 7 8 9 9 9 7 7 8 9 8 7 7 7 8 9 9 11 10 8 9 9 7 10 13 11 11 11 9 6 4 4 5 5
13 12 11 11 11 11 10 9 8 7 7 9 10 9 9 7 6 7 9 7 7 6 7 8 11 11 13 11 8 9 9 8 9 9 8 8 7 7 7 4 2 3 5
13 12 12 11 11 11 10 9 9 9 9 9 9 9 8 8 7 8 10 7 7 7 8 8 8 15 14 11 9 8 10 10 8 7 6 5 4 4 5 6 5 3 5
13 14 13 12 13 13 10 9 9 9 9 9 9 10 8 6 6 8 11 11 9 6 7 8 10 16 14 11 8 12 14 11 6 6 5 4 4 6 6 6 6 7 7
15 15 14 14 12 12 11 10 9 8 9 9 8 8 7 4 4 7 9 9 9 6 4 10 16 17 14 9 11 14 12 6 5 5 5 5 6 7 6 5 5 5 6
15 14 13 12 12 11 9 9 9 9 8 8 7 6 4 2 2 3 3 4 4 5 5 13 18 15 10 10 10 8 5 4 4 5 7 8 6 5 4 4 4 4 5
14 13 12 11 10 10 9 8 9 8 7 6 4 4 3 3 2 4 4 4 4 4 9 10 9 8 8 8 7 6 4 3 4 6 8 7 5 5 4 5 4 5 5
12 11 9 8 8 8 8 8 10 10 9 6 4 2 3 4 5 5 6 6 4 8 10 10 10 9 9 9 8 7 5 4 5 7 7 6 5 4 4 4 4 5 6
11 10 7 7 7 7 7 6 5 4 5 5 5 5 6 7 6 6 7 7 8 10 8 9 9 8 8 8 7 6 5 5 6 6 6 5 5 5 5 3 3 4 5
9 9 8 6 6 6 6 5 4 4 4 4 4 6 8 8 7 7 8 8 7 8 7 9 9 8 8 8 7 6 6 6 5 5 5 5 5 5 5 4 3 4 5
6 4 4 4 4 5 5 4 4 4 4 4 5 5 6 7 8 8 8 6 8 7 6 7 7 7 7 7 6 7 7 6 5 5 5 5 5 5 4 4 4 5 4
3 2 2 2 2 3 3 4 4 3 4 4 5 6 6 5 5 5 5 4 5 4 4 5 6 6 6 6 7 7 8 6 6 5 5 4 4 5 5 6 6 4 2
3 1 2 1 1 2 3 3 2 2 4 5 6 7 10 7 7 8 6 5 4 3 2 3 5 6 6 6 7 8 8 7 5 5 6 4 4 4 4 5 6 5 4
3 2 1 2 1 2 1 2 1 2 5 7 8 8 9 7 7 7 6 5 3 2 1 2 5 6 6 6 7 7 7 7 6 6 6 5 4 4 4 5 5 5 4
4 3 2 2 2 2 1 2 2 4 6 7 8 8 7 6 7 7 6 4 2 2 1 1 3 4 5 5 6 6 7 7 6 6 6 5 4 4 4 4 5 4 4
6 4 3 2 1 1 2 3 3 5 7 7 7 7 7 7 8 8 7 4 3 2 2 1 2 5 6 6 5 6 6 7 7 6 7 6 5 4 4 4 4 4 4
5 4 3 2 2 2 2 3 3 5 6 6 7 8 9 9 9 9 7 6 5 3 2 2 2 5 7 7 6 6 10 11 8 6 6 4 5 5 5 5 4 4 4
5 5 3 3 2 2 1 2 3 4 5 7 7 8 8 9 9 9 8 6 4 3 3 3 4 6 7 6 9 12 11 11 10 7 4 3 3 3 4 4 5 5 5
Wind_Direction
323 321 320 317 317 315 309 311 317 318 318 313 303 290 280 273 263 255 256 262 267 275 282 286 287 284 277 270 262 250 234 210 192 144 120 121 113 114 110 110 111 100 98
305 301 299 300 301 301 301 306 309 307 305 305 305 297 283 274 267 263 261 266 269 275 281 289 292 296 292 283 270 253 232 196 164 147 133 126 115 118 117 114 110 103 101
275 271 272 273 277 280 283 287 288 289 291 294 297 298 294 284 274 268 262 261 262 268 276 285 294 306 305 300 286 262 194 151 140 137 135 125 116 121 116 110 110 112 110
265 261 259 259 260 262 265 268 271 275 278 279 281 287 291 292 281 269 264 259 255 257 261 267 285 333 331 317 311 114 130 129 131 133 132 127 122 123 122 126 125 131 131
271 267 261 256 253 254 256 258 259 263 269 271 274 278 286 287 279 277 267 259 246 235 223 192 108 91 74 75 114 121 131 132 133 133 134 131 133 141 141 145 141 143 131
268 269 267 262 259 257 256 257 255 255 257 259 263 269 274 282 298 304 285 267 249 226 200 158 139 125 105 91 87 88 111 134 139 139 138 142 146 149 150 155 148 147 146
279 278 273 270 268 262 266 265 260 260 261 259 259 262 266 274 282 281 273 263 240 216 193 174 170 145 141 123 107 98 91 104 125 132 138 142 144 158 160 159 161 157 141
284 282 278 273 273 269 263 261 260 260 262 267 267 264 260 267 279 273 263 256 242 214 189 177 159 155 154 146 135 114 93 84 112 117 120 123 123 129 139 140 133 121 112
286 283 283 280 278 274 270 266 264 262 262 264 268 263 257 255 257 255 246 251 237 211 185 169 161 159 155 153 137 120 108 95 90 103 108 109 104 96 100 119 131 130 130
285 283 282 278 275 273 270 268 269 266 263 262 263 261 259 254 247 234 225 243 237 206 175 164 165 156 158 157 144 135 128 125 122 115 109 113 113 101 86 81 100 151 140
288 286 283 278 274 271 267 263 262 263 264 261 263 265 259 252 247 224 213 227 242 206 175 163 156 151 153 151 145 138 138 134 130 129 126 125 117 99 81 65 49 77 123
290 285 280 276 274 272 263 260 258 258 260 258 256 257 254 241 235 215 208 216 241 235 187 158 150 151 148 145 139 142 147 145 143 143 141 140 124 98 87 79 70 67 85
284 279 275 274 269 266 263 260 258 253 251 253 249 248 244 225 208 211 208 212 227 236 217 152 147 147 140 137 147 154 161 165 155 152 143 125 111 109 106 99 92 86 77
279 275 272 270 267 262 256 252 250 249 246 244 244 244 234 197 192 186 185 185 186 198 161 141 139 144 141 136 146 160 179 182 159 140 121 116 117 126 135 141 137 120 99
277 273 268 263 261 259 254 246 245 243 244 242 246 230 204 196 185 167 169 159 160 164 145 144 143 146 147 147 158 171 187 174 140 124 124 131 145 163 162 157 152 146 132
273 269 262 256 253 249 249 252 236 232 230 214 205 187 128 131 149 162 161 151 158 168 158 150 150 155 156 157 164 173 178 156 138 131 135 147 162 157 141 146 164 156 149
271 267 260 253 249 243 239 235 231 214 206 185 165 146 131 139 152 158 145 150 172 180 170 155 154 157 158 161 166 166 161 146 137 138 146 154 151 139 141 162 170 142 133
278 269 259 250 245 235 229 224 215 206 192 183 164 149 140 141 147 144 138 144 174 198 177 161 160 160 160 161 162 158 148 138 139 146 150 150 147 146 153 163 153 139 132
296 281 263 248 233 220 213 204 202 203 196 181 148 134 130 123 121 133 145 163 178 191 174 159 156 152 152 153 151 142 137 141 153 149 146 148 148 148 158 159 126 120 145
328 310 287 247 212 199 196 195 195 188 177 168 156 143 141 137 137 150 169 186 196 185 154 147 143 140 141 140 133 135 141 149 154 149 141 148 152 158 160 144 136 153 184
354 21 244 254 167 173 181 186 185 182 162 150 139 141 151 151 152 165 175 189 197 171 130 131 132 136 134 133 138 145 147 148 153 152 145 159 163 158 151 144 149 177 178
348 12 41 56 95 115 138 167 179 139 133 126 122 131 145 146 155 164 174 187 181 135 126 143 142 139 143 148 147 149 149 153 165 156 149 163 157 156 158 159 168 180 169
0 33 64 68 91 113 149 144 125 116 119 123 129 139 152 151 156 164 172 175 171 145 170 161 141 145 149 147 146 152 155 158 160 151 151 159 161 165 168 168 170 168 167
1 14 25 39 77 120 120 112 114 117 122 128 135 144 152 153 160 168 173 177 186 176 164 161 171 165 149 143 150 158 152 146 147 147 155 163 167 169 168 161 169 182 183
351 360 6 11 31 68 94 111 125 128 132 139 145 151 154 156 164 173 178 181 187 175 172 192 192 160 156 158 147 131 127 128 134 146 154 166 174 175 175 175 181 196 200
345 351 6 16 25 41 75 111 127 139 145 147 151 156 158 161 168 171 173 176 182 187 200 195 175 158 162 156 125 121 125 126 124 123 148 174 185 189 190 197 197 203 211